DW3384 Weather Reports


time (UTC)temp
F
wind
direction
speed
knots
gust
knots
rain 1hr
in
rain 24hr
in
rain mn
in
humidity
%
barometer
mb
20260507114503 40 256 3.5 7.0 0.00 0.08 0.08 84 1016.5
20260507113101 40 265 3.5 5.2 0.00 0.08 0.08 84 1016.4
20260507111602 40 287 3.5 7.0 0.00 0.08 0.08 84 1016.4
20260507110057 40 272 2.6 5.2 0.00 0.08 0.08 84 1016.4
20260507104553 41 257 2.6 5.2 0.00 0.08 0.08 84 1016.5
20260507103050 41 289 2.6 6.1 0.00 0.08 0.08 84 1016.5
20260507101549 42 290 2.6 4.3 0.00 0.08 0.08 84 1016.6
20260507100047 42 281 1.7 4.3 0.00 0.08 0.08 84 1016.6
20260507094544 43 281 2.6 5.2 0.00 0.08 0.08 84 1016.7
20260507093047 43 282 2.6 4.3 0.00 0.08 0.08 84 1016.7
20260507091545 43 275 2.6 4.3 0.00 0.08 0.08 83 1016.7
20260507090040 44 294 1.7 3.5 0.00 0.08 0.08 83 1016.5
20260507084536 44 278 2.6 4.3 0.00 0.08 0.08 83 1016.9
20260507083034 44 288 1.7 5.2 0.00 0.08 0.08 83 1016.9
20260507081533 44 274 2.6 3.5 0.00 0.08 0.08 83 1017.0
20260507080032 44 311 1.7 5.2 0.00 0.08 0.08 83 1017.1
20260507074531 45 282 1.7 5.2 0.00 0.08 0.08 83 1017.6
20260507073031 45 281 2.6 4.3 0.00 0.08 0.08 82 1017.6
20260507071529 44 278 1.7 4.3 0.01 0.08 0.08 82 1017.4
20260507070032 45 273 2.6 5.2 0.03 0.08 0.08 81 1017.5
20260507064525 45 298 1.7 5.2 0.04 0.08 0.08 81 1017.5
20260507063022 45 286 2.6 5.2 0.05 0.08 0.08 80 1017.6
20260507061520 46 306 0.9 2.6 0.05 0.07 0.07 79 1017.4
20260507060022 46 309 1.7 2.6 0.05 0.05 0.05 79 1017.9
20260507054519 46 312 1.7 2.6 0.04 0.04 0.04 79 1017.9
20260507053013 47 339 0.9 1.7 0.03 0.03 0.03 78 1017.5
20260507051511 47 284 1.7 4.3 0.02 0.02 0.02 75 1017.8
20260507050006 49 313 1.7 4.3 0.00 0.00 0.00 68 1017.7
20260507044505 50 314 0.9 3.5 0.00 0.00 0.00 62 1017.2
20260507043009 51 298 0.9 2.6 0.00 0.00 0.00 60 1017.3
20260507041503 51 34 0.0 4.3 0.00 0.00 0.00 60 1016.9
20260507040003 51 355 1.7 7.0 0.00 0.00 0.00 60 1017.3
20260507034503 51 42 1.7 7.0 0.00 0.00 0.00 60 1017.4
20260507033001 51 334 0.9 7.8 0.00 0.00 0.00 59 1017.4
20260507031600 51 5 2.6 7.8 0.00 0.00 0.00 59 1017.3
20260507030057 51 355 4.3 7.8 0.00 0.00 0.00 58 1016.8
20260507024605 51 284 1.7 8.7 0.00 0.00 0.00 58 1016.3
20260507023052 50 30 3.5 8.7 0.00 0.00 0.00 58 1016.1
20260507021549 50 345 3.5 7.0 0.00 0.00 0.00 57 1015.5
20260507020106 51 5 4.3 7.8 0.00 0.00 0.00 57 1015.4
20260507014552 51 317 2.6 7.8 0.00 0.00 0.00 55 1015.1
20260507013052 52 325 1.7 7.8 0.00 0.00 0.00 54 1014.6
20260507011545 53 5 0.9 7.0 0.00 0.00 0.00 53 1014.0
20260507010045 54 9 0.9 4.3 0.00 0.00 0.00 51 1013.6
20260507004552 54 40 2.6 7.0 0.00 0.00 0.00 51 1013.2
20260507003047 55 336 2.6 8.7 0.00 0.00 0.00 50 1013.2
20260507001546 56 34 3.5 7.8 0.00 0.00 0.00 49 1013.4
20260507000040 57 9 1.7 7.0 0.00 0.00 0.00 49 1013.4
20260506234544 58 332 0.9 7.8 0.00 0.00 0.00 49 1013.1
20260506233046 58 42 0.9 4.3 0.00 0.00 0.00 49 1013.1
20260506231538 59 37 1.7 5.2 0.00 0.00 0.00 48 1013.1
20260506230046 58 50 1.7 5.2 0.00 0.00 0.00 49 1013.1
20260506224537 59 341 1.7 9.6 0.00 0.00 0.00 48 1013.1
20260506223042 59 77 0.9 4.3 0.00 0.00 0.00 48 1013.0
20260506221533 58 55 0.9 6.1 0.00 0.00 0.00 50 1013.0
20260506220030 57 156 0.9 3.5 0.00 0.00 0.00 52 1013.0
20260506214539 56 321 1.7 7.0 0.00 0.00 0.00 52 1013.3
20260506213029 56 360 1.7 10.4 0.00 0.00 0.00 52 1013.5
20260506211529 56 14 1.7 7.8 0.00 0.00 0.00 52 1013.7
20260506210027 56 17 1.7 5.2 0.00 0.00 0.00 51 1013.7
20260506204527 56 26 1.7 8.7 0.00 0.00 0.00 52 1013.6
20260506203023 55 64 1.7 7.0 0.00 0.00 0.00 52 1013.7
20260506201521 55 21 1.7 6.1 0.00 0.00 0.00 53 1013.8
20260506200016 54 82 2.6 7.8 0.00 0.00 0.00 53 1013.7
20260506194512 54 18 1.7 9.6 0.00 0.00 0.00 54 1013.8
20260506193010 53 129 1.7 10.4 0.00 0.00 0.00 55 1013.8
20260506191509 53 355 2.6 9.6 0.00 0.00 0.00 54 1013.8
20260506190009 53 5 1.7 9.6 0.00 0.00 0.00 54 1013.9
20260506184503 52 71 1.7 7.0 0.00 0.00 0.00 56 1014.2
20260506183005 52 102 2.6 7.0 0.00 0.00 0.00 56 1014.5
20260506181623 51 98 0.9 7.8 0.00 0.00 0.00 57 1014.7
20260506180058 51 342 0.9 4.3 0.00 0.00 0.00 58 1014.8
20260506174556 51 336 0.9 7.8 0.00 0.00 0.00 58 1014.7
20260506173101 50 76 2.6 11.3 0.00 0.00 0.00 59 1014.7
20260506171553 50 80 2.6 9.6 0.00 0.00 0.00 60 1014.9
20260506170055 50 81 2.6 8.7 0.00 0.00 0.00 60 1014.8
20260506164549 49 22 0.9 8.7 0.00 0.00 0.00 61 1014.7
20260506163047 49 44 5.2 10.4 0.00 0.00 0.00 62 1014.5
20260506161547 48 32 1.7 9.6 0.00 0.00 0.00 63 1014.3
20260506160052 48 74 0.9 8.7 0.00 0.00 0.00 64 1013.9
20260506154540 47 197 2.6 11.3 0.00 0.00 0.00 65 1013.9
20260506153059 47 92 5.2 9.6 0.00 0.00 0.00 65 1013.6
20260506151543 47 56 6.1 13.9 0.00 0.00 0.00 66 1013.3
20260506150047 46 95 7.0 12.2 0.00 0.00 0.00 68 1012.9
20260506144537 46 77 3.5 10.4 0.00 0.00 0.00 69 1013.5
20260506143037 46 107 3.5 9.6 0.00 0.00 0.00 70 1013.3
20260506141536 46 198 3.5 13.0 0.00 0.00 0.00 72 1012.4
20260506140035 45 107 5.2 11.3 0.00 0.00 0.00 74 1012.8
20260506134533 44 45 1.7 7.0 0.00 0.00 0.00 76 1014.0
20260506133032 44 89 7.0 12.2 0.00 0.00 0.00 77 1013.2
20260506131538 44 32 0.9 7.8 0.00 0.00 0.00 78 1014.1
20260506130028 44 61 1.7 7.0 0.00 0.00 0.00 78 1013.4
20260506124527 44 65 1.7 7.0 0.00 0.00 0.00 78 1013.5
20260506123025 44 327 0.9 7.0 0.00 0.00 0.00 78 1013.3
20260506121523 44 331 1.7 6.1 0.00 0.00 0.00 78 1012.9
20260506120021 44 101 0.9 7.0 0.00 0.00 0.00 78 1012.3